STARLINK-2204

decayed
NORAD ID: 47418 Int'l Des: 2021-006 Owner: SPXS Country: US Constellation: starlink
LEOCIRCULARRETROGRADE
Gruppe

Über STARLINK-2204

Beschreibung wird geladen...

Höhenverlauf

Altitude vs Time

uPlot chart will show altitude changes over time

Zweizeiliger Elementsatz

1 47418U 21006F 21360.81190366 .53596811 22273-5 49603-3 0 9993
2 47418 97.4789 60.0959 0009878 336.3235 116.1243 16.51283071 51217
Epoch: 26. Dez. 2021 • Age: 32686 hours

Aktueller Status

Position data unavailable
Startdatum 24. Jan. 2021
Alter 4.6 years
Verglühungsdatum 26. Dez. 2021
Typ internet

Technische Details

Klassifizierung Payload
Masse 260.00 kg
Trockenmasse 248.00 kg
Gesamtmasse 260.00 kg
Länge 0.20 m
Durchmesser 2.80 m
Spannweite 9.00 m
Form Box + pan
Hersteller SPXS
Bus-Typ Starlink
Phasenstatus Reentered
Besitzer/Staat SPXS/US

Große Konstellationen

Loading constellations...